Location: Caltech
(34.1382°N, 118.1253°W)
Time: 05:32:24
(UTC-07:00)

Cosmos 1697 Rocket - Visible Passes

Search period start: 25 April 2015 00:00
Search period end: 05 May 2015 00:00
Orbit: 832 x 844 km, 71.0° (Epoch: 24 April)

Date Brightness Start Highest point End Pass type
(mag) Time Alt. Az. Time Alt. Az. Time Alt. Az.
25 Apr 4.6 02:03:37 25° NNE 02:03:37 25° NNE 02:05:54 10° NNE visible
25 Apr 4.9 03:45:21 12° NW 03:45:21 12° NW 03:47:00 10° NNW visible
26 Apr 4.8 01:47:47 23° NNE 01:47:47 23° NNE 01:49:47 10° NNE visible
26 Apr 4.9 03:29:31 13° NW 03:29:31 13° NW 03:31:17 10° NNW visible
27 Apr 4.9 01:31:55 21° NNE 01:31:55 21° NNE 01:33:41 10° NNE visible
27 Apr 4.9 03:13:38 13° NW 03:13:38 13° NW 03:15:29 10° NNW visible
28 Apr 5.0 01:16:01 19° NNE 01:16:01 19° NNE 01:17:34 10° NNE visible
28 Apr 4.9 02:57:44 14° NW 02:57:44 14° NW 02:59:38 10° NNW visible
29 Apr 5.0 01:00:05 18° NNE 01:00:05 18° NNE 01:01:27 10° NNE visible
29 Apr 4.9 02:41:48 15° NW 02:41:48 15° NW 02:43:45 10° NNW visible
30 Apr 5.1 00:44:08 17° NNE 00:44:08 17° NNE 00:45:19 10° NNE visible
30 Apr 4.9 02:25:50 16° NW 02:25:50 16° NW 02:27:50 10° NNW visible
01 May 5.1 00:28:08 16° NE 00:28:08 16° NE 00:29:11 10° NNE visible
01 May 4.9 02:09:50 16° NNW 02:09:50 16° NNW 02:11:54 10° NNW visible
02 May 5.1 00:12:06 15° NE 00:12:06 15° NE 00:13:02 10° NNE visible
02 May 4.9 01:53:49 17° NNW 01:53:49 17° NNW 01:55:57 10° N visible
02 May 5.1 23:56:02 14° NE 23:56:02 14° NE 23:56:53 10° NE visible
03 May 4.9 01:37:44 18° NNW 01:37:44 18° NNW 01:40:00 10° N visible
03 May 5.1 23:39:55 14° NE 23:39:55 14° NE 23:40:44 10° NE visible
04 May 4.9 01:21:38 19° NNW 01:21:38 19° NNW 01:24:01 10° N visible
04 May 5.0 23:23:46 14° NE 23:23:46 14° NE 23:24:34 10° NE visible
